| time (UTC) | temp C | wind direction | speed KPH | gust KPH | rain 1hr cm | rain 24hr cm | rain mn cm | humidity % | barometer mb |
| 20260502170400 | 16 | 333 | 3.2 | 4.8 | 0.00 | 0.00 | 0.00 | 48 | 1019.8 |
| 20260502164347 | 16 | 330 | 4.8 | 11.3 | 0.00 | 0.00 | 0.00 | 51 | 1019.9 |
| 20260502163843 | 16 | 344 | 3.2 | 4.8 | 0.00 | 0.00 | 0.00 | 51 | 1019.9 |
| 20260502163340 | 15 | 345 | 3.2 | 4.8 | 0.00 | 0.00 | 0.00 | 54 | 1020.0 |
| 20260502162838 | 15 | 325 | 8.0 | 11.3 | 0.00 | 0.00 | 0.00 | 54 | 1020.2 |
| 20260502162334 | 15 | 308 | 1.6 | 11.3 | 0.00 | 0.00 | 0.00 | 52 | 1020.0 |
| 20260502161831 | 15 | 331 | 3.2 | 3.2 | 0.00 | 0.00 | 0.00 | 54 | 1020.0 |
| 20260502161327 | 14 | 349 | 6.4 | 11.3 | 0.00 | 0.00 | 0.00 | 57 | 1020.0 |
| 20260502160826 | 14 | 338 | 3.2 | 9.7 | 0.00 | 0.00 | 0.00 | 56 | 1020.0 |
| 20260502160324 | 14 | 337 | 4.8 | 8.0 | 0.00 | 0.00 | 0.00 | 58 | 1019.9 |
| 20260502152259 | 13 | 310 | 1.6 | 3.2 | 0.00 | 0.00 | 0.00 | 60 | 1019.8 |
| 20260502151756 | 13 | 328 | 3.2 | 4.8 | 0.00 | 0.00 | 0.00 | 62 | 1019.5 |
| 20260502151253 | 13 | 333 | 3.2 | 4.8 | 0.00 | 0.00 | 0.00 | 59 | 1019.6 |
| 20260502150751 | 13 | 353 | 3.2 | 4.8 | 0.00 | 0.00 | 0.00 | 61 | 1019.4 |
| 20260502150248 | 13 | 313 | 1.6 | 3.2 | 0.00 | 0.00 | 0.00 | 64 | 1019.6 |
| 20260502130636 | 11 | 315 | 3.2 | 3.2 | 0.00 | 0.00 | 0.00 | 71 | 1018.1 |
| 20260502130134 | 11 | 337 | 3.2 | 4.8 | 0.00 | 0.00 | 0.00 | 70 | 1018.1 |
| 20260502123620 | 11 | 315 | 1.6 | 3.2 | 0.00 | 0.00 | 0.00 | 71 | 1018.0 |
| 20260502123116 | 11 | 315 | 0.0 | 3.2 | 0.00 | 0.00 | 0.00 | 71 | 1017.8 |
| 20260502122612 | 11 | 332 | 3.2 | 9.7 | 0.00 | 0.00 | 0.00 | 68 | 1017.8 |
| 20260502122109 | 11 | 311 | 3.2 | 3.2 | 0.00 | 0.00 | 0.00 | 70 | 1018.0 |
| 20260502121607 | 11 | 314 | 0.0 | 3.2 | 0.00 | 0.00 | 0.00 | 69 | 1017.8 |
| 20260502121105 | 11 | 323 | 1.6 | 3.2 | 0.00 | 0.00 | 0.00 | 70 | 1017.8 |
| 20260502120600 | 11 | 327 | 1.6 | 3.2 | 0.00 | 0.00 | 0.00 | 70 | 1017.7 |
| 20260502115556 | 11 | 333 | 3.2 | 4.8 | 0.00 | 0.00 | 0.00 | 68 | 1017.5 |
| 20260502115051 | 11 | 327 | 1.6 | 3.2 | 0.00 | 0.00 | 0.00 | 67 | 1017.4 |
| 20260502114548 | 11 | 327 | 3.2 | 3.2 | 0.00 | 0.00 | 0.00 | 67 | 1017.4 |
| 20260502114045 | 11 | 332 | 3.2 | 4.8 | 0.00 | 0.00 | 0.00 | 68 | 1017.1 |
| 20260502113542 | 11 | 327 | 1.6 | 3.2 | 0.00 | 0.00 | 0.00 | 67 | 1017.3 |
| 20260502113041 | 11 | 322 | 1.6 | 3.2 | 0.00 | 0.00 | 0.00 | 67 | 1017.2 |
| 20260502112538 | 11 | 325 | 3.2 | 4.8 | 0.00 | 0.00 | 0.00 | 68 | 1017.2 |
| 20260502112036 | 11 | 323 | 1.6 | 3.2 | 0.00 | 0.00 | 0.00 | 68 | 1017.2 |
| 20260502111533 | 11 | 322 | 0.0 | 3.2 | 0.00 | 0.00 | 0.00 | 71 | 1017.6 |
| 20260502111030 | 11 | 322 | 1.6 | 4.8 | 0.00 | 0.00 | 0.00 | 68 | 1017.3 |
| 20260502110527 | 11 | 333 | 1.6 | 3.2 | 0.00 | 0.00 | 0.00 | 67 | 1017.3 |
| 20260502110025 | 11 | 319 | 1.6 | 3.2 | 0.00 | 0.00 | 0.00 | 70 | 1017.3 |
| 20260502105522 | 11 | 324 | 1.6 | 3.2 | 0.00 | 0.00 | 0.00 | 70 | 1017.2 |
| 20260502105020 | 11 | 326 | 3.2 | 3.2 | 0.00 | 0.00 | 0.00 | 70 | 1017.2 |
| 20260502104517 | 11 | 322 | 1.6 | 3.2 | 0.00 | 0.00 | 0.00 | 69 | 1016.9 |
| 20260502104014 | 11 | 325 | 1.6 | 3.2 | 0.00 | 0.00 | 0.00 | 74 | 1017.0 |
| 20260502103512 | 11 | 326 | 3.2 | 3.2 | 0.00 | 0.00 | 0.00 | 72 | 1016.5 |
| 20260502103010 | 11 | 321 | 1.6 | 3.2 | 0.00 | 0.00 | 0.00 | 72 | 1017.3 |
| 20260502102506 | 11 | 319 | 1.6 | 1.6 | 0.00 | 0.00 | 0.00 | 72 | 1017.2 |
| 20260502102003 | 11 | 321 | 0.0 | 1.6 | 0.00 | 0.00 | 0.00 | 74 | 1017.0 |
| 20260502101501 | 11 | 322 | 1.6 | 3.2 | 0.00 | 0.00 | 0.00 | 75 | 1016.9 |
| 20260502100959 | 11 | 322 | 1.6 | 1.6 | 0.00 | 0.00 | 0.00 | 74 | 1017.4 |
| 20260502100457 | 11 | 323 | 3.2 | 3.2 | 0.00 | 0.00 | 0.00 | 74 | 1017.5 |
| 20260502091432 | 11 | 318 | 1.6 | 3.2 | 0.00 | 0.00 | 0.00 | 76 | 1017.1 |
| 20260502090929 | 11 | 318 | 1.6 | 1.6 | 0.00 | 0.00 | 0.00 | 75 | 1016.9 |
| 20260502090426 | 11 | 321 | 1.6 | 3.2 | 0.00 | 0.00 | 0.00 | 74 | 1017.2 |
| 20260502071320 | 12 | 328 | 1.6 | 1.6 | 0.00 | 0.00 | 0.00 | 88 | 1017.1 |
| 20260502070819 | 12 | 330 | 1.6 | 3.2 | 0.00 | 0.00 | 0.00 | 88 | 1017.2 |
| 20260502070316 | 12 | 312 | 0.0 | 1.6 | 0.00 | 0.00 | 0.00 | 90 | 1017.3 |
| 20260502065815 | 12 | 313 | 3.2 | 3.2 | 0.00 | 0.00 | 0.00 | 91 | 1017.5 |
| 20260502065312 | 12 | 307 | 0.0 | 3.2 | 0.00 | 0.00 | 0.00 | 92 | 1017.5 |
| 20260502064810 | 12 | 306 | 0.0 | 1.6 | 0.00 | 0.00 | 0.00 | 92 | 1017.8 |
| 20260502064308 | 12 | 269 | 0.0 | 0.0 | 0.00 | 0.00 | 0.00 | 93 | 1017.6 |
| 20260502063805 | 12 | 237 | 3.2 | 4.8 | 0.00 | 0.00 | 0.00 | 92 | 1017.7 |
| 20260502063303 | 12 | 313 | 0.0 | 3.2 | 0.00 | 0.00 | 0.00 | 91 | 1018.1 |
| 20260502062759 | 12 | 332 | 1.6 | 1.6 | 0.00 | 0.00 | 0.00 | 91 | 1017.8 |
| 20260502062257 | 12 | 328 | 1.6 | 1.6 | 0.00 | 0.00 | 0.00 | 90 | 1017.5 |
| 20260502061756 | 12 | 340 | 0.0 | 1.6 | 0.00 | 0.00 | 0.00 | 90 | 1017.4 |
| 20260502061253 | 13 | 340 | 0.0 | 1.6 | 0.00 | 0.00 | 0.00 | 89 | 1017.7 |
| 20260502060753 | 13 | 312 | 0.0 | 1.6 | 0.00 | 0.00 | 0.00 | 88 | 1017.6 |
| 20260502060249 | 13 | 313 | 0.0 | 1.6 | 0.00 | 0.00 | 0.00 | 88 | 1017.7 |
| 20260502055747 | 13 | 317 | 1.6 | 1.6 | 0.00 | 0.00 | 0.00 | 87 | 1017.7 |
| 20260502055245 | 13 | 317 | 0.0 | 0.0 | 0.00 | 0.00 | 0.00 | 88 | 1017.5 |
| 20260502054744 | 13 | 317 | 0.0 | 1.6 | 0.00 | 0.00 | 0.00 | 87 | 1017.6 |
| 20260502054241 | 13 | 313 | 0.0 | 1.6 | 0.00 | 0.00 | 0.00 | 87 | 1017.6 |
| 20260502053738 | 13 | 315 | 0.0 | 0.0 | 0.00 | 0.00 | 0.00 | 87 | 1017.2 |
| 20260502053235 | 13 | 315 | 0.0 | 1.6 | 0.00 | 0.00 | 0.00 | 85 | 1017.3 |
| 20260502052733 | 13 | 314 | 0.0 | 1.6 | 0.00 | 0.00 | 0.00 | 87 | 1017.4 |
| 20260502052231 | 12 | 313 | 0.0 | 0.0 | 0.00 | 0.00 | 0.00 | 87 | 1017.5 |
| 20260502051729 | 12 | 313 | 0.0 | 0.0 | 0.00 | 0.00 | 0.00 | 88 | 1017.5 |
| 20260502051227 | 12 | 313 | 0.0 | 0.0 | 0.00 | 0.00 | 0.00 | 88 | 1017.4 |
| 20260502050723 | 13 | 313 | 0.0 | 0.0 | 0.00 | 0.00 | 0.00 | 90 | 1017.3 |
| 20260502050219 | 13 | 313 | 1.6 | 1.6 | 0.00 | 0.00 | 0.00 | 89 | 1017.4 |
| 20260502045716 | 13 | 313 | 1.6 | 1.6 | 0.00 | 0.05 | 0.05 | 89 | 1017.3 |
| 20260502045214 | 13 | 313 | 0.0 | 1.6 | 0.00 | 0.05 | 0.05 | 87 | 1017.6 |
| 20260502044710 | 13 | 313 | 1.6 | 1.6 | 0.00 | 0.05 | 0.05 | 87 | 1017.5 |
| 20260502044206 | 13 | 314 | 0.0 | 1.6 | 0.00 | 0.05 | 0.05 | 87 | 1017.5 |
| 20260502043704 | 13 | 314 | 0.0 | 1.6 | 0.00 | 0.05 | 0.05 | 88 | 1017.5 |
| 20260502043202 | 13 | 314 | 0.0 | 0.0 | 0.00 | 0.05 | 0.05 | 89 | 1017.3 |
| 20260502042701 | 13 | 314 | 0.0 | 0.0 | 0.00 | 0.05 | 0.05 | 90 | 1017.0 |
| 20260502042158 | 13 | 314 | 0.0 | 0.0 | 0.00 | 0.05 | 0.05 | 90 | 1017.1 |
| 20260502041655 | 12 | 314 | 0.0 | 0.0 | 0.00 | 0.05 | 0.05 | 91 | 1017.1 |
| 20260502041153 | 12 | 314 | 0.0 | 0.0 | 0.00 | 0.05 | 0.05 | 92 | 1017.2 |
| 20260502040649 | 12 | 314 | 0.0 | 0.0 | 0.00 | 0.05 | 0.05 | 92 | 1017.2 |
| 20260502040147 | 12 | 314 | 0.0 | 0.0 | 0.00 | 0.05 | 0.05 | 94 | 1017.0 |
| 20260502035643 | 12 | 314 | 0.0 | 0.0 | 0.00 | 0.05 | 0.05 | 94 | 1017.0 |
| 20260502035139 | 12 | 314 | 0.0 | 0.0 | 0.00 | 0.05 | 0.05 | 94 | 1016.9 |
| 20260502034637 | 12 | 314 | 0.0 | 0.0 | 0.00 | 0.05 | 0.05 | 94 | 1017.2 |
| 20260502034136 | 12 | 314 | 0.0 | 0.0 | 0.00 | 0.05 | 0.05 | 93 | 1017.1 |
| 20260502033633 | 12 | 314 | 0.0 | 0.0 | 0.00 | 0.05 | 0.05 | 93 | 1017.1 |
| 20260502033131 | 12 | 314 | 0.0 | 0.0 | 0.00 | 0.05 | 0.05 | 93 | 1017.3 |
| 20260502032627 | 12 | 314 | 0.0 | 0.0 | 0.00 | 0.05 | 0.05 | 93 | 1017.3 |
| 20260502032123 | 12 | 314 | 0.0 | 0.0 | 0.00 | 0.05 | 0.05 | 92 | 1017.5 |
| 20260502031621 | 12 | 314 | 0.0 | 0.0 | 0.00 | 0.05 | 0.05 | 91 | 1017.4 |
| 20260502031119 | 12 | 314 | 0.0 | 0.0 | 0.00 | 0.05 | 0.05 | 92 | 1017.5 |
| 20260502030618 | 12 | 314 | 0.0 | 0.0 | 0.00 | 0.05 | 0.05 | 93 | 1017.5 |
| 20260502030115 | 12 | 314 | 0.0 | 0.0 | 0.00 | 0.05 | 0.05 | 94 | 1018.0 |
| 20260502025612 | 12 | 314 | 0.0 | 0.0 | 0.00 | 0.05 | 0.05 | 96 | 1017.8 |
| 20260502025110 | 12 | 314 | 0.0 | 0.0 | 0.00 | 0.05 | 0.05 | 97 | 1017.6 |
| 20260502024608 | 12 | 314 | 0.0 | 0.0 | 0.00 | 0.05 | 0.05 | 97 | 1017.7 |
| 20260502024106 | 12 | 314 | 0.0 | 0.0 | 0.00 | 0.05 | 0.05 | 97 | 1017.7 |
| 20260502023603 | 12 | 314 | 0.0 | 0.0 | 0.00 | 0.05 | 0.05 | 97 | 1017.8 |
| 20260502023100 | 12 | 314 | 0.0 | 0.0 | 0.00 | 0.05 | 0.05 | 98 | 1018.0 |
| 20260502022557 | 12 | 314 | 0.0 | 0.0 | 0.00 | 0.05 | 0.05 | 97 | 1017.8 |
| 20260502022054 | 12 | 314 | 0.0 | 0.0 | 0.00 | 0.05 | 0.05 | 97 | 1018.1 |
| 20260502021552 | 12 | 314 | 0.0 | 0.0 | 0.00 | 0.05 | 0.05 | 96 | 1018.1 |
| 20260502021048 | 12 | 314 | 0.0 | 0.0 | 0.00 | 0.05 | 0.05 | 96 | 1018.2 |
| 20260502020546 | 12 | 314 | 0.0 | 0.0 | 0.00 | 0.05 | 0.05 | 95 | 1018.2 |
| 20260502020043 | 12 | 314 | 0.0 | 0.0 | 0.00 | 0.05 | 0.05 | 95 | 1018.3 |
| 20260502015540 | 12 | 314 | 0.0 | 0.0 | 0.13 | 0.05 | 0.05 | 95 | 1018.2 |
| 20260502015037 | 12 | 314 | 0.0 | 0.0 | 0.13 | 0.05 | 0.05 | 95 | 1018.2 |
| 20260502014534 | 12 | 314 | 0.0 | 0.0 | 0.00 | 0.03 | 0.03 | 95 | 1018.2 |
| 20260502014031 | 12 | 314 | 0.0 | 0.0 | 0.00 | 0.03 | 0.03 | 94 | 1018.0 |
| 20260502013526 | 12 | 314 | 0.0 | 0.0 | 0.00 | 0.03 | 0.03 | 93 | 1018.0 |
| 20260502013023 | 13 | 314 | 0.0 | 0.0 | 0.18 | 0.03 | 0.03 | 92 | 1018.2 |
| 20260502012520 | 13 | 314 | 0.0 | 0.0 | 0.18 | 0.03 | 0.03 | 90 | 1017.8 |
| 20260502012018 | 13 | 314 | 0.0 | 0.0 | 0.00 | 0.00 | 0.00 | 86 | 1018.1 |
| 20260502011514 | 13 | 314 | 0.0 | 0.0 | 0.00 | 0.00 | 0.00 | 83 | 1017.8 |
| 20260502011011 | 13 | 315 | 0.0 | 0.0 | 0.00 | 0.00 | 0.00 | 80 | 1018.0 |
| 20260502010508 | 14 | 315 | 0.0 | 1.6 | 0.00 | 0.00 | 0.00 | 78 | 1017.6 |
| 20260502010004 | 14 | 315 | 0.0 | 0.0 | 0.00 | 0.00 | 0.00 | 77 | 1017.5 |
| 20260502005502 | 14 | 315 | 0.0 | 0.0 | 0.00 | 0.00 | 0.00 | 76 | 1017.5 |
| 20260502005000 | 14 | 315 | 0.0 | 0.0 | 0.00 | 0.00 | 0.00 | 75 | 1017.1 |
| 20260502004455 | 14 | 315 | 0.0 | 0.0 | 0.00 | 0.00 | 0.00 | 76 | 1017.1 |
| 20260502003952 | 14 | 315 | 0.0 | 1.6 | 0.00 | 0.00 | 0.00 | 76 | 1017.1 |
| 20260502003450 | 14 | 315 | 1.6 | 1.6 | 0.00 | 0.00 | 0.00 | 77 | 1017.0 |
| 20260502002946 | 14 | 315 | 0.0 | 0.0 | 0.00 | 0.00 | 0.00 | 77 | 1017.2 |
| 20260502002443 | 14 | 315 | 0.0 | 0.0 | 0.00 | 0.00 | 0.00 | 74 | 1017.3 |
| 20260502001940 | 14 | 315 | 1.6 | 1.6 | 0.00 | 0.00 | 0.00 | 74 | 1017.4 |
| 20260502001438 | 14 | 315 | 0.0 | 1.6 | 0.00 | 0.00 | 0.00 | 73 | 1017.1 |
| 20260502000935 | 14 | 315 | 0.0 | 1.6 | 0.00 | 0.00 | 0.00 | 75 | 1017.1 |
| 20260502000434 | 14 | 316 | 0.0 | 0.0 | 0.00 | 0.00 | 0.00 | 73 | 1017.0 |
| 20260501235930 | 14 | 316 | 0.0 | 0.0 | 0.00 | 0.00 | 0.00 | 73 | 1016.9 |
| 20260501235425 | 15 | 317 | 0.0 | 0.0 | 0.00 | 0.00 | 0.00 | 75 | 1016.9 |
| 20260501234920 | 15 | 317 | 0.0 | 1.6 | 0.00 | 0.00 | 0.00 | 71 | 1017.0 |
| 20260501234418 | 15 | 317 | 0.0 | 0.0 | 0.00 | 0.00 | 0.00 | 71 | 1016.7 |
| 20260501233916 | 15 | 315 | 1.6 | 1.6 | 0.00 | 0.00 | 0.00 | 72 | 1016.7 |
| 20260501233413 | 15 | 315 | 0.0 | 0.0 | 0.00 | 0.00 | 0.00 | 70 | 1016.7 |
| 20260501232909 | 15 | 315 | 0.0 | 1.6 | 0.00 | 0.00 | 0.00 | 69 | 1016.9 |
| 20260501232406 | 15 | 315 | 0.0 | 0.0 | 0.00 | 0.00 | 0.00 | 70 | 1016.7 |
| 20260501231904 | 15 | 315 | 0.0 | 0.0 | 0.00 | 0.00 | 0.00 | 72 | 1016.8 |
| 20260501231402 | 15 | 315 | 0.0 | 1.6 | 0.00 | 0.00 | 0.00 | 69 | 1016.8 |
| 20260501230900 | 15 | 315 | 0.0 | 1.6 | 0.00 | 0.00 | 0.00 | 68 | 1016.8 |
| 20260501230359 | 15 | 316 | 1.6 | 1.6 | 0.00 | 0.00 | 0.00 | 69 | 1016.7 |
| 20260501225855 | 15 | 319 | 0.0 | 0.0 | 0.00 | 0.00 | 0.00 | 69 | 1016.7 |
| 20260501225353 | 15 | 319 | 0.0 | 0.0 | 0.00 | 0.00 | 0.00 | 67 | 1016.6 |
| 20260501224849 | 15 | 319 | 0.0 | 1.6 | 0.00 | 0.00 | 0.00 | 67 | 1016.8 |
| 20260501224347 | 16 | 319 | 0.0 | 0.0 | 0.00 | 0.00 | 0.00 | 68 | 1016.7 |
| 20260501223843 | 16 | 319 | 0.0 | 0.0 | 0.00 | 0.00 | 0.00 | 68 | 1016.7 |
| 20260501223339 | 16 | 319 | 0.0 | 0.0 | 0.00 | 0.00 | 0.00 | 67 | 1016.8 |
| 20260501222834 | 16 | 319 | 1.6 | 1.6 | 0.00 | 0.00 | 0.00 | 67 | 1016.8 |
| 20260501222332 | 16 | 320 | 0.0 | 0.0 | 0.00 | 0.00 | 0.00 | 68 | 1016.9 |
| 20260501221829 | 16 | 320 | 0.0 | 0.0 | 0.00 | 0.00 | 0.00 | 68 | 1017.1 |
| 20260501221326 | 16 | 326 | 0.0 | 0.0 | 0.00 | 0.00 | 0.00 | 70 | 1017.0 |
| 20260501220824 | 16 | 327 | 1.6 | 1.6 | 0.00 | 0.00 | 0.00 | 68 | 1016.9 |
| 20260501220321 | 16 | 328 | 0.0 | 0.0 | 0.00 | 0.00 | 0.00 | 68 | 1017.0 |
| 20260501215818 | 16 | 330 | 0.0 | 0.0 | 0.00 | 0.00 | 0.00 | 67 | 1016.5 |
| 20260501215314 | 16 | 321 | 1.6 | 1.6 | 0.00 | 0.00 | 0.00 | 65 | 1016.8 |
| 20260501214809 | 16 | 312 | 0.0 | 1.6 | 0.00 | 0.00 | 0.00 | 66 | 1016.7 |
| 20260501214305 | 16 | 315 | 0.0 | 1.6 | 0.00 | 0.00 | 0.00 | 66 | 1016.5 |
| 20260501213801 | 16 | 315 | 0.0 | 0.0 | 0.00 | 0.00 | 0.00 | 68 | 1016.2 |
| 20260501213257 | 17 | 302 | 0.0 | 1.6 | 0.00 | 0.00 | 0.00 | 65 | 1016.2 |
| 20260501212753 | 17 | 316 | 0.0 | 1.6 | 0.00 | 0.00 | 0.00 | 64 | 1016.2 |
| 20260501212250 | 17 | 317 | 0.0 | 0.0 | 0.00 | 0.00 | 0.00 | 64 | 1016.1 |
| 20260501211748 | 17 | 311 | 0.0 | 0.0 | 0.00 | 0.00 | 0.00 | 65 | 1016.2 |
| 20260501211244 | 17 | 312 | 0.0 | 3.2 | 0.00 | 0.00 | 0.00 | 65 | 1016.2 |
| 20260501210741 | 17 | 313 | 0.0 | 1.6 | 0.00 | 0.00 | 0.00 | 67 | 1015.9 |
| 20260501210238 | 17 | 314 | 0.0 | 0.0 | 0.00 | 0.00 | 0.00 | 64 | 1016.1 |
| 20260501205734 | 17 | 319 | 1.6 | 1.6 | 0.00 | 0.00 | 0.00 | 64 | 1016.2 |
| 20260501205231 | 16 | 320 | 0.0 | 1.6 | 0.00 | 0.00 | 0.00 | 64 | 1016.5 |
| 20260501204728 | 16 | 321 | 0.0 | 3.2 | 0.00 | 0.00 | 0.00 | 63 | 1016.7 |
| 20260501204225 | 17 | 327 | 1.6 | 1.6 | 0.00 | 0.00 | 0.00 | 64 | 1016.9 |
| 20260501203721 | 17 | 328 | 0.0 | 1.6 | 0.00 | 0.00 | 0.00 | 61 | 1017.1 |
| 20260501203219 | 17 | 327 | 0.0 | 1.6 | 0.00 | 0.00 | 0.00 | 62 | 1017.1 |
| 20260501202716 | 17 | 326 | 0.0 | 1.6 | 0.00 | 0.00 | 0.00 | 61 | 1017.3 |
| 20260501202213 | 17 | 344 | 3.2 | 3.2 | 0.00 | 0.00 | 0.00 | 59 | 1017.2 |
| 20260501201709 | 17 | 316 | 1.6 | 3.2 | 0.00 | 0.00 | 0.00 | 61 | 1017.4 |
| 20260501201206 | 17 | 317 | 1.6 | 4.8 | 0.00 | 0.00 | 0.00 | 61 | 1017.3 |
| 20260501200703 | 17 | 340 | 0.0 | 1.6 | 0.00 | 0.00 | 0.00 | 63 | 1017.5 |
| 20260501200200 | 17 | 337 | 0.0 | 4.8 | 0.00 | 0.00 | 0.00 | 58 | 1017.6 |
| 20260501195657 | 17 | 313 | 1.6 | 1.6 | 0.00 | 0.00 | 0.00 | 59 | 1018.0 |
| 20260501195153 | 17 | 305 | 1.6 | 1.6 | 0.00 | 0.00 | 0.00 | 59 | 1018.2 |
| 20260501194649 | 17 | 356 | 0.0 | 1.6 | 0.00 | 0.00 | 0.00 | 59 | 1018.3 |
| 20260501194144 | 17 | 5 | 1.6 | 3.2 | 0.00 | 0.00 | 0.00 | 58 | 1018.3 |
| 20260501193642 | 16 | 316 | 0.0 | 1.6 | 0.00 | 0.00 | 0.00 | 60 | 1018.4 |
| 20260501193141 | 16 | 311 | 0.0 | 3.2 | 0.00 | 0.00 | 0.00 | 59 | 1018.8 |
| 20260501192637 | 16 | 300 | 1.6 | 4.8 | 0.00 | 0.00 | 0.00 | 62 | 1018.7 |
| 20260501192135 | 16 | 325 | 0.0 | 1.6 | 0.00 | 0.00 | 0.00 | 63 | 1018.7 |
| 20260501191632 | 16 | 305 | 1.6 | 3.2 | 0.00 | 0.00 | 0.00 | 62 | 1018.5 |
| 20260501191129 | 16 | 289 | 1.6 | 4.8 | 0.00 | 0.00 | 0.00 | 61 | 1018.6 |
| 20260501190625 | 16 | 309 | 0.0 | 0.0 | 0.00 | 0.00 | 0.00 | 61 | 1018.7 |
| 20260501190120 | 16 | 309 | 3.2 | 3.2 | 0.00 | 0.00 | 0.00 | 63 | 1018.6 |
| 20260501185617 | 16 | 309 | 0.0 | 1.6 | 0.00 | 0.00 | 0.00 | 64 | 1018.5 |
| 20260501185112 | 16 | 305 | 1.6 | 1.6 | 0.00 | 0.00 | 0.00 | 63 | 1018.7 |
| 20260501184609 | 16 | 303 | 0.0 | 1.6 | 0.00 | 0.00 | 0.00 | 63 | 1018.6 |
| 20260501184104 | 17 | 300 | 1.6 | 3.2 | 0.00 | 0.00 | 0.00 | 61 | 1018.4 |
| 20260501183601 | 16 | 321 | 0.0 | 0.0 | 0.00 | 0.00 | 0.00 | 61 | 1018.3 |
| 20260501183057 | 16 | 287 | 0.0 | 3.2 | 0.00 | 0.00 | 0.00 | 61 | 1018.3 |
| 20260501182554 | 16 | 311 | 0.0 | 1.6 | 0.00 | 0.00 | 0.00 | 65 | 1018.2 |
| 20260501182051 | 16 | 335 | 3.2 | 4.8 | 0.00 | 0.00 | 0.00 | 67 | 1018.2 |
| 20260501181548 | 16 | 309 | 0.0 | 1.6 | 0.00 | 0.00 | 0.00 | 64 | 1018.2 |
| 20260501181045 | 17 | 310 | 1.6 | 3.2 | 0.00 | 0.00 | 0.00 | 65 | 1018.3 |
| 20260501180543 | 16 | 309 | 1.6 | 1.6 | 0.00 | 0.00 | 0.00 | 66 | 1018.2 |
| 20260501180038 | 17 | 309 | 0.0 | 1.6 | 0.00 | 0.00 | 0.00 | 70 | 1018.3 |
| 20260501175535 | 16 | 355 | 0.0 | 4.8 | 0.00 | 0.00 | 0.00 | 69 | 1018.2 |
| 20260501175032 | 16 | 300 | 1.6 | 1.6 | 0.00 | 0.00 | 0.00 | 69 | 1018.5 |
| 20260501174529 | 16 | 312 | 0.0 | 0.0 | 0.00 | 0.00 | 0.00 | 70 | 1018.5 |
| 20260501174027 | 16 | 322 | 3.2 | 3.2 | 0.00 | 0.00 | 0.00 | 73 | 1018.4 |
| 20260501173524 | 16 | 313 | 1.6 | 3.2 | 0.00 | 0.00 | 0.00 | 73 | 1018.9 |